Погода в Никулино

Россия / Ульяновская область     53°09′01″N   47°03′09″E
темп.,
°C
ветер,
м/с
пор.,
м/с
влажн.,
%
обл.,
%
осадки,
мм/ч
давл.,
гПа
погр.,
м
14 мая, пт
пт1401:00+13юв23885 0.4 101948
04:00+13вюв228397 0.4 102021
07:00+15юв267668 0.4 1019160
10:00+20ююв4658100 0.4 1019476
13:00+25ю56490 0.0 10191098
16:00+26ю56481 0.0 10191584
19:00+23ю36645 0.0 1019148
22:00+19юв3372100 0.0 101939
15 мая, сб
сб1501:00+17юв347082 0.0 101960
04:00+17ю411587 0.0 1019175
07:00+17ю3126052 0.0 1019273
10:00+24ю611395 0.0 1019543
13:00+26ю7103261 0.0 10191029
16:00+27ю6103550 0.0 10181468
19:00+23ю411495 0.0 1017265
22:00+19ююв4135290 0.0 1018204
16 мая, вс
вс1601:00+17ю4135165 0.0 1017224
04:00+16ю4135769 0.0 1017214
07:00+18ю396366 0.0 1018200
10:00+24ю5941100 0.0 1018602
13:00+26ю6834100 0.0 10181286
16:00+27ююз5837100 0.0 10171861
19:00+24ююз2251100 0.0 101719
22:00+20ю1154100 0.0 101711
17 мая, пн
пн1701:00+18юв1155100 0.0 101711
04:00+18вюв115299 0.0 101711
07:00+19юв356383 0.1 101894
10:00+26юв464192 0.1 1018521
13:00+29ю692495 0.0 10183188
16:00+28ю572899 0.0 10172938
19:00+26ююв224498 0.0 101615
22:00+20ююв2245100 0.0 101712
18 мая, вт
вт1801:00+18юв2247100 0.0 101712
04:00+17вюв3350100 0.0 101724
07:00+18вюв3959100 0.0 1017207
10:00+23юв4742100 0.0 1016473
13:00+27юв5736100 0.0 1016937
16:00+28юв5836100 0.0 10151496
19:00+24вюв3651100 0.0 1014116
22:00+20юв334999 0.0 101538